DW7199 Weather Reports


time (UTC)temp
C
wind
direction
speed
KPH
gust
KPH
rain 1hr
cm
rain 24hr
cm
rain mn
cm
humidity
%
barometer
mb
20260505011607 22 160 3.2 8.0 0.00 0.00 0.00 49 1008.3
20260505010059 22 161 1.6 3.2 0.00 0.00 0.00 49 1008.3
20260505004559 22 191 1.6 11.3 0.00 0.00 0.00 48 1008.1
20260505003057 23 233 6.4 12.9 0.00 0.00 0.00 46 1008.2
20260505001626 23 180 3.2 14.5 0.00 0.00 0.00 45 1008.2
20260505000133 24 189 6.4 17.7 0.00 0.00 0.00 43 1008.3
20260504234611 25 142 12.9 20.9 0.00 0.00 0.00 42 1008.4
20260504233104 25 233 9.7 22.5 0.00 0.00 0.00 42 1008.5
20260504231553 25 137 8.0 17.7 0.00 0.00 0.00 41 1008.5
20260504230053 25 171 12.9 22.5 0.00 0.00 0.00 41 1008.7
20260504224607 26 149 12.9 20.9 0.00 0.00 0.00 41 1008.6
20260504223051 26 167 12.9 33.8 0.00 0.00 0.00 40 1008.5
20260504221551 26 187 11.3 30.6 0.00 0.00 0.00 40 1008.6
20260504220051 26 205 14.5 25.7 0.00 0.00 0.00 37 1008.6
20260504214550 26 168 6.4 30.6 0.00 0.00 0.00 39 1008.6
20260504213112 26 204 12.9 30.6 0.00 0.00 0.00 38 1008.7
20260504211548 27 152 12.9 32.2 0.00 0.00 0.00 37 1008.7
20260504210048 27 154 8.0 32.2 0.00 0.00 0.00 36 1008.8
20260504204548 27 232 16.1 32.2 0.00 0.00 0.00 35 1008.9
20260504203054 27 195 9.7 25.7 0.00 0.00 0.00 39 1009.1
20260504201543 26 230 12.9 33.8 0.00 0.00 0.00 38 1009.4
20260504200044 26 174 19.3 35.4 0.00 0.00 0.00 37 1009.6
20260504194554 27 199 12.9 27.4 0.00 0.00 0.00 36 1009.8
20260504193049 27 158 11.3 35.4 0.00 0.00 0.00 38 1010.2
20260504191536 26 206 17.7 35.4 0.00 0.00 0.00 38 1010.3
20260504190036 27 193 20.9 30.6 0.00 0.00 0.00 36 1010.4
20260504184533 27 200 14.5 29.0 0.00 0.00 0.00 37 1010.5
20260504183031 27 135 14.5 32.2 0.00 0.00 0.00 38 1010.6
20260504181529 26 185 11.3 33.8 0.00 0.00 0.00 40 1010.9
20260504180028 26 230 16.1 35.4 0.00 0.00 0.00 38 1010.9
20260504174526 26 181 11.3 24.1 0.00 0.00 0.00 40 1011.2
20260504173034 26 197 14.5 25.7 0.00 0.00 0.00 40 1011.4
20260504171523 25 299 11.3 22.5 0.00 0.00 0.00 46 1011.6
20260504140104 21 215 6.4 17.7 0.00 0.00 0.00 61 1013.1
20260504081515 16 160 4.8 11.3 0.00 0.00 0.00 64 1012.6
20260504060103 16 205 1.6 11.3 0.00 0.00 0.00 62 1014.0
20260504044601 15 156 1.6 6.4 0.00 0.00 0.00 63 1014.2
20260504043052 14 131 3.2 8.0 0.00 0.00 0.00 66 1014.3
20260504041552 13 160 0.0 4.8 0.00 0.00 0.00 72 1014.3
20260504040052 12 122 0.0 3.2 0.00 0.00 0.00 78 1014.3
20260504034554 12 139 0.0 0.0 0.00 0.00 0.00 79 1014.3
20260504033056 12 151 0.0 0.0 0.00 0.00 0.00 78 1014.6
20260504031551 13 141 0.0 0.0 0.00 0.00 0.00 77 1014.6
20260504030050 13 141 0.0 0.0 0.00 0.00 0.00 76 1014.8
20260504024549 13 141 0.0 1.6 0.00 0.00 0.00 75 1014.8
20260504023049 14 169 0.0 0.0 0.00 0.00 0.00 72 1014.7
20260504021549 15 169 0.0 0.0 0.00 0.00 0.00 70 1014.6
20260504020048 15 169 0.0 0.0 0.00 0.00 0.00 69 1014.5
20260504014549 16 169 0.0 0.0 0.00 0.00 0.00 66 1014.4
20260504013050 16 169 0.0 0.0 0.00 0.00 0.00 64 1014.3